Pierre, SD

11:37 PM CDT on August 20, 2019 (GMT -0500)
Pierre Regional

Weather History for KPIR - July, 2019

Change the Weather History Date:

Monday, July 15, 2019

  Actual Average Record
Temperature  
Mean Temperature 80 °F 76 °F  
Max Temperature 90 °F 89 °F 117 °F (2006)
Min Temperature 70 °F 62 °F 46 °F (2014)
Degree Days  
Heating Degree Days 0    
Month to date heating degree days 0  
Since 1 June heating degree days 42  
Since 1 July heating degree days 0  
Cooling Degree Days 15    
Month to date cooling degree days 143  
Year to date cooling degree days 273  
Since 1 June cooling degree days 262  
Growing Degree Days 30 (Base 50)    
Moisture  
Dew Point 67 °F    
Average Humidity 70    
Maximum Humidity 100    
Minimum Humidity 40    
Precipitation  
Precipitation T in 0.08 in 1.00 in (1900)
Month to date precipitation 2.45 1.26  
Year to date precipitation 18.55 12.03  
Snow  
Snow 0.00 in 0.00 in 0.00 in ()
Month to date snowfall 0.0 0.0  
Since 1 July snowfall 0.0 0.0  
Snow Depth 0.00 in    
Sea Level Pressure  
Sea Level Pressure 29.82 in    
Wind  
Wind Speed 8 mph (NNW)    
Max Wind Speed 17 mph    
Max Gust Speed 23 mph    
Visibility 10 miles    
Events      
T = Trace of Precipitation, MM = Missing Value Source: NWS Daily Summary

Daily Weather History Graph

Daily Weather History Graph

Search for Another Location

Airport or City:

Astronomy

Jul. 15, 2019 Rise Set
Actual Time 6:10 AM CDT 9:22 PM CDT
Civil Twilight 5:35 AM CDT 9:58 PM CDT
Nautical Twilight 4:49 AM CDT 10:43 PM CDT
Astronomical Twilight 3:53 AM CDT 11:39 PM CDT
Moon 8:42 PM CDT (7/15) 4:58 AM CDT (7/15)
Length of Visible Light 16h 22m
Length of Day
15h 12m
Waxing Gibbous, 99% of the Moon is Illuminated
Jul 15
Waxing Gibbous
Jul 16
Full
Jul 24
Last Quarter
Jul 31
New
Aug 7
First Quarter

Hourly Weather History & Observations

Time (CDT) Temp. Heat Index Dew Point Humidity Pressure Visibility Wind Dir Wind Speed Gust Speed Precip Events Conditions
12:53 AM 73.0 °F - 69.1 °F 87% 29.78 in 10.0 mi NNW 4.6 mph - N/A   Clear
1:53 AM 73.9 °F - 71.1 °F 91% 29.79 in 10.0 mi NNE 3.5 mph - N/A   Clear
2:53 AM 72.0 °F - 70.0 °F 93% 29.79 in 10.0 mi NW 5.8 mph - 0.00 in   Clear
3:53 AM 70.0 °F - 69.1 °F 97% 29.79 in 7.0 mi Calm Calm - N/A   Clear
4:53 AM 71.1 °F - 69.1 °F 93% 29.79 in 5.0 mi NW 8.1 mph - N/A   Clear
5:53 AM 71.1 °F - 70.0 °F 96% 29.81 in 9.0 mi WNW 6.9 mph - N/A   Clear
6:53 AM 72.0 °F - 70.0 °F 93% 29.81 in 10.0 mi NNW 6.9 mph - N/A   Clear
7:53 AM 73.0 °F - 66.0 °F 79% 29.85 in 10.0 mi NNW 13.8 mph - N/A   Clear
8:53 AM 77.0 °F - 68.0 °F 74% 29.83 in 10.0 mi North 5.8 mph - N/A   Clear
9:53 AM 78.1 °F - 64.0 °F 62% 29.85 in 10.0 mi NNW 13.8 mph - N/A   Clear
10:53 AM 84.0 °F 86.3 °F 66.0 °F 55% 29.81 in 10.0 mi NE 6.9 mph - N/A   Clear
11:53 AM 87.1 °F 87.0 °F 61.0 °F 41% 29.82 in 10.0 mi North 5.8 mph - N/A   Clear
12:53 PM 87.1 °F 88.9 °F 64.9 °F 48% 29.84 in 10.0 mi NW 13.8 mph - N/A   Clear
1:53 PM 88.0 °F 88.7 °F 63.0 °F 43% 29.85 in 10.0 mi NW 16.1 mph - N/A   Clear
2:53 PM 88.0 °F 89.6 °F 64.9 °F 46% 29.84 in 10.0 mi NW 11.5 mph - N/A   Clear
3:53 PM 87.1 °F 89.2 °F 66.0 °F 49% 29.85 in 10.0 mi WNW 12.7 mph - N/A   Clear
4:53 PM 87.1 °F 89.9 °F 66.9 °F 51% 29.82 in 10.0 mi NNW 12.7 mph - N/A   Clear
5:53 PM 89.1 °F 93.7 °F 69.1 °F 52% 29.80 in 10.0 mi NNE 12.7 mph - N/A   Clear
6:53 PM 87.1 °F 88.9 °F 64.9 °F 48% 29.81 in 10.0 mi NNE 8.1 mph - N/A   Clear
7:53 PM 84.9 °F 87.6 °F 66.9 °F 55% 29.82 in 10.0 mi NNE 5.8 mph - N/A   Clear
8:53 PM 81.0 °F 83.3 °F 66.9 °F 62% 29.82 in 10.0 mi NE 3.5 mph - N/A   Clear
9:53 PM 75.0 °F - 64.9 °F 71% 29.83 in 10.0 mi WNW 3.5 mph - N/A   Clear
10:53 PM 71.1 °F - 64.9 °F 81% 29.84 in 10.0 mi North 3.5 mph - N/A   Clear
11:53 PM 73.9 °F - 64.0 °F 71% 29.84 in 10.0 mi WNW 4.6 mph - N/A   Clear